Change the Weather History Date:

Wednesday, January 4, 2012

  Actual Average (KGRR) Record (KGRR)
Temperature  
Mean Temperature 28 °F 25 °F  
Max Temperature 36 °F 31 °F 60 °F (1997)
Min Temperature 21 °F 19 °F -20 °F (1981)
Degree Days  
Heating Degree Days 36 40  
Month to date heating degree days 160  
Since 1 July heating degree days 2609  
Cooling Degree Days 0 0  
Month to date cooling degree days 0  
Year to date cooling degree days 0  
Moisture  
Dew Point 19 °F    
Average Humidity 71    
Maximum Humidity 83    
Minimum Humidity 64    
Precipitation  
Precipitation 0.00 in 0.08 in 2.15 in (1993)
Month to date precipitation 0.31  
Year to date precipitation 0.31  
Snow  
Snow 0.00 in 0.70 in 6.30 in (1941)
Month to date snowfall 2.9  
Since 1 July snowfall 32.1  
Snow Depth -    
Sea Level Pressure  
Sea Level Pressure 29.92 in    
Wind  
Wind Speed 10 mph (SW)    
Max Wind Speed 15 mph    
Max Gust Speed 18 mph    
Visibility 10 miles    
Events      
T = Trace of Precipitation, MM = Missing Value Source: NWS Daily Summary

Daily Weather History Graph

Daily Weather History Graph

Search for Another Location

Airport or City:

Trip Planner

Search our weather history database for the weather conditions in past years. The results will help you decide how hot, cold, wet, or windy it might be!

Date:

Astronomy

Jan. 04, 2012 Rise Set
Actual Time 8:11 AM EST 5:18 PM EST
Civil Twilight 7:39 AM EST 5:50 PM EST
Nautical Twilight 7:03 AM EST 6:26 PM EST
Astronomical Twilight 6:29 AM EST 7:00 PM EST
Moon 1:42 PM EST 3:58 AM EST
Length of Visible Light 10h 11m
Length of Day
9h 07m
Waxing Gibbous, 80% of the Moon is Illuminated
Jan 4
Waxing Gibbous
Jan 9
Full
Jan 16
Last Quarter
Jan 23
New
Jan 30
First Quarter

Hourly Weather History & Observations

Time (EST) Temp. Windchill Dew Point Humidity Pressure Visibility Wind Dir Wind Speed Gust Speed Precip Events Conditions
12:13 AM 21.2 °F 9.5 °F 10.9 °F 65% 30.08 in 10.0 mi South 11.5 mph - N/A   Mostly Cloudy
12:33 AM 21.2 °F 10.1 °F 10.8 °F 64% 30.08 in 10.0 mi South 10.4 mph - N/A   Overcast
12:53 AM 21.2 °F 10.9 °F 10.9 °F 65% 30.07 in 10.0 mi SSW 9.2 mph - N/A   Overcast
1:13 AM 21.0 °F 9.9 °F 11.3 °F 66% 30.06 in 10.0 mi South 10.4 mph - N/A   Mostly Cloudy
1:33 AM 21.0 °F 10.6 °F 11.1 °F 66% 30.04 in 10.0 mi South 9.2 mph - N/A   Scattered Clouds
1:53 AM 21.0 °F 9.3 °F 11.3 °F 66% 30.02 in 10.0 mi South 11.5 mph - N/A   Clear
2:13 AM 21.0 °F 9.9 °F 11.3 °F 66% 30.02 in 10.0 mi South 10.4 mph - N/A   Clear
2:33 AM 21.2 °F 8.3 °F 11.3 °F 66% 30.02 in 10.0 mi South 13.8 mph 18.4 mph N/A   Clear
2:53 AM 21.0 °F 9.3 °F 11.7 °F 67% 30.00 in 10.0 mi SSW 11.5 mph - N/A   Clear
3:13 AM 21.2 °F 9.5 °F 11.8 °F 67% 29.99 in 10.0 mi SSW 11.5 mph - N/A   Clear
3:33 AM 21.7 °F 10.8 °F 12.2 °F 67% 29.99 in 10.0 mi SSW 10.4 mph - N/A   Clear
3:53 AM 22.1 °F 10.6 °F 12.6 °F 67% 29.98 in 10.0 mi SSW 11.5 mph - N/A   Clear
4:13 AM 22.1 °F 11.3 °F 12.9 °F 68% 29.97 in 10.0 mi South 10.4 mph - N/A   Clear
4:33 AM 22.1 °F 10.6 °F 13.1 °F 68% 29.96 in 10.0 mi South 11.5 mph - N/A   Clear
4:53 AM 22.1 °F 11.3 °F 13.8 °F 70% 29.94 in 10.0 mi South 10.4 mph - N/A   Clear
5:13 AM 22.6 °F 11.9 °F 14.0 °F 69% 29.93 in 10.0 mi SSW 10.4 mph - N/A   Clear
5:33 AM 22.8 °F 12.2 °F 14.0 °F 69% 29.92 in 10.0 mi SSW 10.4 mph - N/A   Clear
5:53 AM 23.2 °F 12.0 °F 14.2 °F 68% 29.91 in 10.0 mi South 11.5 mph - N/A   Clear
6:13 AM 23.0 °F 12.4 °F 14.4 °F 70% 29.91 in 10.0 mi SSW 10.4 mph - N/A   Clear
6:33 AM 23.0 °F 13.9 °F 14.4 °F 70% 29.92 in 10.0 mi SSW 8.1 mph - N/A   Clear
6:53 AM 23.0 °F 14.7 °F 14.9 °F 71% 29.92 in 10.0 mi SSW 6.9 mph - N/A   Clear
7:13 AM 23.0 °F 12.4 °F 14.9 °F 71% 29.91 in 10.0 mi South 10.4 mph - N/A   Clear
7:33 AM 22.8 °F 13.6 °F 14.9 °F 72% 29.92 in 10.0 mi South 8.1 mph - N/A   Clear
7:53 AM 22.8 °F 12.2 °F 14.9 °F 72% 29.91 in 10.0 mi SSW 10.4 mph - N/A   Clear
8:13 AM 22.6 °F 14.3 °F 14.9 °F 72% 29.91 in 10.0 mi SSW 6.9 mph - N/A   Clear
8:33 AM 22.1 °F 13.7 °F 14.9 °F 74% 29.91 in 10.0 mi SSW 6.9 mph - N/A   Clear
8:53 AM 22.3 °F 13.0 °F 15.1 °F 74% 29.91 in 10.0 mi SSW 8.1 mph - N/A   Clear
9:13 AM 22.8 °F 13.6 °F 15.4 °F 73% 29.91 in 10.0 mi South 8.1 mph - N/A   Clear
9:33 AM 23.9 °F 15.0 °F 15.8 °F 71% 29.91 in 10.0 mi SSW 8.1 mph - N/A   Clear
10:13 AM 26.1 °F 16.8 °F 17.1 °F 69% 29.90 in 10.0 mi SSW 9.2 mph - N/A   Clear
10:33 AM 27.1 °F 17.5 °F 18.1 °F 69% 29.89 in 10.0 mi SSW 10.4 mph 16.1 mph N/A   Scattered Clouds
11:13 AM 29.7 °F 22.8 °F 20.3 °F 68% 29.91 in 10.0 mi WSW 6.9 mph - N/A   Scattered Clouds
11:33 AM 30.7 °F 22.0 °F 21.6 °F 69% 29.89 in 10.0 mi SW 10.4 mph - N/A   Scattered Clouds
11:53 AM 31.6 °F 23.7 °F 22.1 °F 68% 29.87 in 10.0 mi SW 9.2 mph - N/A   Clear
12:13 PM 32.0 °F 23.0 °F 22.8 °F 69% 29.85 in 10.0 mi SW 11.5 mph - N/A   Clear
12:33 PM 32.9 °F 25.3 °F 23.4 °F 68% 29.85 in 10.0 mi SW 9.2 mph - N/A   Clear
12:53 PM 33.3 °F 25.7 °F 23.5 °F 68% 29.83 in 10.0 mi SW 9.2 mph - N/A   Clear
1:13 PM 33.8 °F 27.0 °F 24.3 °F 68% 29.82 in 10.0 mi SW 8.1 mph - N/A   Scattered Clouds
1:33 PM 34.2 °F 26.2 °F 25.0 °F 69% 29.82 in 10.0 mi SW 10.4 mph - N/A   Clear
1:53 PM 35.8 °F 27.3 °F 26.1 °F 68% 29.82 in 10.0 mi WSW 12.7 mph - N/A   Clear
2:13 PM 35.6 °F 28.0 °F 24.6 °F 64% 29.82 in 10.0 mi West 10.4 mph 17.3 mph N/A   Clear
2:33 PM 36.5 °F 29.7 °F 26.2 °F 66% 29.82 in 10.0 mi WSW 9.2 mph - N/A   Clear
2:53 PM 36.3 °F 30.1 °F 25.5 °F 65% 29.83 in 10.0 mi West 8.1 mph - N/A   Clear
3:13 PM 36.1 °F 29.9 °F 25.5 °F 65% 29.83 in 10.0 mi West 8.1 mph 17.3 mph N/A   Clear
3:53 PM 35.4 °F 26.0 °F 24.8 °F 65% 29.85 in 10.0 mi West 15.0 mph - N/A   Scattered Clouds
4:13 PM 35.6 °F 28.0 °F 25.5 °F 67% 29.85 in 10.0 mi West 10.4 mph - N/A   Scattered Clouds
5:13 PM 34.0 °F 26.6 °F 25.7 °F 72% 29.86 in 10.0 mi West 9.2 mph - N/A   Clear
5:33 PM 33.6 °F 25.6 °F 26.1 °F 74% 29.87 in 10.0 mi West 10.4 mph - N/A   Scattered Clouds
5:53 PM 33.3 °F 25.7 °F 26.4 °F 76% 29.88 in 10.0 mi West 9.2 mph 17.3 mph N/A   Scattered Clouds
6:13 PM 32.9 °F 23.7 °F 26.4 °F 77% 29.89 in 10.0 mi West 12.7 mph - N/A   Scattered Clouds
6:33 PM 32.5 °F 24.2 °F 26.6 °F 79% 29.90 in 10.0 mi West 10.4 mph 17.3 mph N/A   Scattered Clouds
6:53 PM 32.2 °F 23.2 °F 26.6 °F 80% 29.91 in 10.0 mi West 11.5 mph - N/A   Scattered Clouds
7:13 PM 32.0 °F 24.8 °F 26.6 °F 80% 29.92 in 10.0 mi WNW 8.1 mph - N/A   Mostly Cloudy
7:33 PM 32.0 °F 22.1 °F 26.4 °F 80% 29.92 in 10.0 mi West 13.8 mph 17.3 mph N/A   Mostly Cloudy
7:53 PM 31.6 °F 22.1 °F 26.2 °F 80% 29.92 in 10.0 mi West 12.7 mph 16.1 mph N/A   Mostly Cloudy
8:13 PM 31.5 °F 22.9 °F 26.4 °F 82% 29.93 in 10.0 mi WNW 10.4 mph 16.1 mph N/A   Mostly Cloudy
8:33 PM 31.1 °F 23.1 °F 25.7 °F 80% 29.94 in 10.0 mi WNW 9.2 mph 16.1 mph N/A   Mostly Cloudy
8:53 PM 31.1 °F 22.4 °F 26.1 °F 82% 29.94 in 10.0 mi WNW 10.4 mph - N/A   Overcast
9:13 PM 31.1 °F 21.4 °F 26.1 °F 82% 29.94 in 10.0 mi West 12.7 mph 16.1 mph N/A   Overcast
9:33 PM 31.1 °F 21.9 °F 26.2 °F 82% 29.94 in 10.0 mi West 11.5 mph - N/A   Overcast
9:53 PM 31.1 °F 21.9 °F 26.4 °F 83% 29.95 in 10.0 mi WNW 11.5 mph - N/A   Scattered Clouds
10:13 PM 31.1 °F 23.1 °F 26.2 °F 82% 29.94 in 10.0 mi West 9.2 mph - N/A   Scattered Clouds
10:33 PM 31.1 °F 24.5 °F 26.2 °F 82% 29.94 in 10.0 mi West 6.9 mph - N/A   Scattered Clouds
10:53 PM 30.9 °F 22.8 °F 26.1 °F 82% 29.93 in 10.0 mi West 9.2 mph - N/A   Clear
11:13 PM 30.9 °F 23.5 °F 26.1 °F 82% 29.93 in 10.0 mi West 8.1 mph - N/A   Clear
11:33 PM 30.4 °F 23.6 °F 25.7 °F 83% 29.93 in 10.0 mi West 6.9 mph - N/A   Scattered Clouds
11:53 PM 30.0 °F 23.2 °F 25.7 °F 84% 29.93 in 10.0 mi West 6.9 mph - N/A   Scattered Clouds